Flag for Germany Weather past 2 weeks in Potsdam, Brandenburg, Germany

Now
39 °F

Passing clouds.


Feels Like: 33 °F
Forecast: 40 / 44 °F
Wind: 9 mph from West

Location: Potsdam

Current Time: Dec 20, 2014 at 1:28:24 AM

Latest Report: Dec 20, 2014 at 1:00 AM


Visibility: 25 mi

Pressure: 29.90 "Hg

Humidity: 93%

Dew point: 37 °F

Location of PotsdamLocation

Historic Weather in Potsdam — Graph

°F

Potsdam temperature yesterday

Maximum temperature yesterday: 53 °F (at 2:00 AM)
Minimum temperature yesterday: 42 °F (at 11:00 PM)
Average temperature yesterday: 50 °F

Past Weeks' High & Low Weather Summary

 TemperatureHumidityPressure
High53 °F (Dec 19, 2:00 AM)100% (Dec 7, 10:00 AM)30.39 "Hg (Dec 7, 10:00 AM)
Low28 °F (Dec 9, 5:00 AM)73% (Dec 12, 5:00 PM)29.38 "Hg (Dec 12, 6:00 PM)
Average39 °F91%29.92 "Hg
* Reported Midnight between Dec 4 and Dec 5 — Midnight between Dec 19 and Dec 20, Potsdam, Weather by CustomWeather, © 2014

Note: Actual official high and low records may vary slightly from our data, if they occured in-between our weather recording intervals... More about our weather records

Advertising

Potsdam weather history for previous 24 hours

 ConditionsComfort  
Time TempWeatherWind HumidityBarometerVisibility
12:00 AM
Dec 20
42 °FPassing clouds.12 mph81%29.88 "Hg28 mi
11:00 PM
Dec 19
42 °FPassing clouds.12 mph81%29.86 "Hg28 mi
10:00 PM42 °FClear.9 mph84%29.85 "Hg28 mi
9:00 PM44 °FPassing clouds.9 mph84%29.83 "Hg28 mi
8:00 PM46 °FOvercast.9 mph85%29.81 "Hg28 mi
7:00 PM46 °FPassing clouds.8 mph89%29.77 "Hg28 mi
6:00 PM47 °FLow clouds.8 mph95%29.75 "Hg28 mi
5:00 PM47 °FOvercast.7 mph96%29.71 "Hg25 mi
4:00 PM47 °FDrizzle. Overcast.6 mph96%29.70 "Hg19 mi
3:00 PM50 °FLow clouds.7 mph94%29.69 "Hg19 mi
2:00 PM51 °FLight rain. Low clouds.8 mph97%29.66 "Hg14 mi
1:00 PM51 °FRain. Overcast.9 mph94%29.68 "Hg16 mi
12:00 PM52 °FDrizzle. Overcast.9 mph90%29.69 "Hg14 mi
11:00 AM52 °FOvercast.9 mph88%29.70 "Hg22 mi
10:00 AM53 °FLow clouds.9 mph88%29.71 "Hg17 mi
9:00 AM52 °FLow clouds.8 mph92%29.72 "Hg14 mi
8:00 AM52 °FDrizzle. Low clouds.8 mph94%29.73 "Hg6 mi
7:00 AM52 °FLight rain. Overcast.8 mph94%29.73 "Hg19 mi
6:00 AM52 °FOvercast.8 mph95%29.73 "Hg16 mi
5:00 AM52 °FLight rain. Overcast.9 mph96%29.74 "Hg10 mi
4:00 AM52 °FLight rain. Overcast.9 mph97%29.74 "Hg10 mi
3:00 AM53 °FLight rain. Overcast.9 mph92%29.74 "Hg11 mi
2:00 AM53 °FOvercast.10 mph93%29.74 "Hg12 mi
1:00 AM53 °FOvercast.8 mph96%29.73 "Hg14 mi
Weather by CustomWeather, © 2014

See weather overviewHow to use our weather pages